FALCON 9 DEB (52710 NORAD) Tracking and Keplerian Element Data

This shows tracking and keplerian element data for the satellite.

Feedback or suggestion? Click here.




ElementValue
Catalog52710
NameFALCON 9 DEB
Epoch Orbit842
Epoch Day184.08028997
Epoch Year2022
RAAN63.7529
Inclination53.1965
Eccentricity0.0003982
Argument of Perigee254.1332
Mean Anonmoly105.927
Mean Motion16.22528476
Decay Rate0.01748617
L11 52710U 22053BG 22184.08028997 .01748617 11868-4 72060-3 0 9997
L22 52710 53.1965 63.7529 0003982 254.1332 105.9270 16.22528476 8421

Live tracking and technical data element details for FALCON 9 DEB (NORAD 52710). FALCON 9 DEB can be tracked NOW for your location showing map with azimuth and elevation plus other details from your city location.

Track the satellite on the map from your city or location and see movement details for azimuth, elevation, latitude, longitude, range, height, and movement on the map or in text.







IsCatalogInMostPopularTable: catalog: 52710, numindb: 5
Update: records affected: 1



GetName: 52710 FALCON 9 DEB

Hit Count: updated at: Sun, 14 Aug 2022 00:12:27 GMT